Flag for Denmark Weather past 2 weeks in Vejle, Denmark

Now
37 °F

Partly cloudy.


Feels Like: 32 °F
Forecast: 35 / 45 °F
Wind: 7 mph from East

Location: Billund Lufthavn

Current Time: Mar 27, 2015 at 3:37:00 AM

Latest Report: Mar 27, 2015 at 2:50 AM


Visibility: N/A

Pressure: 29.68 "Hg

Humidity: 87%

Dew point: 34 °F

Location of VejleLocation

Historic Weather in Vejle — Graph

°F

Vejle temperature yesterday

Maximum temperature yesterday: 45 °F (at 2:20 PM)
Minimum temperature yesterday: 37 °F (at 6:50 AM)
Average temperature yesterday: 41 °F

Past Weeks' High & Low Weather Summary

 TemperatureHumidityPressure
High55 °F (Mar 19, 1:50 PM)100% (Mar 19, 11:50 PM)30.60 "Hg (Mar 19, 11:50 PM)
Low21 °F (Mar 22, 5:50 AM)28% (Mar 19, 4:20 PM)29.62 "Hg (Mar 26, 2:50 AM)
Average40 °F77%30.23 "Hg
* Reported Mar 12 2:20 AM — Mar 27 2:20 AM, Vejle, Weather by CustomWeather, © 2015

Note: Actual official high and low records may vary slightly from our data, if they occured in-between our weather recording intervals... More about our weather records

Advertising

Vejle weather history for previous 24 hours

 ConditionsComfort  
Time TempWeatherWind HumidityBarometerVisibility
2:20 AM
Fri, Mar 27
37 °FPartly cloudy.7 mph87%29.68 "HgN/A
1:50 AM37 °FMostly cloudy.6 mph87%29.68 "HgN/A
1:20 AM37 °FMostly cloudy.6 mph87%29.68 "HgN/A
12:50 AM37 °FClear.3 mph87%29.68 "Hg10 mi
12:20 AM37 °FClear.5 mph87%29.68 "Hg10 mi
11:50 PM
Thu, Mar 26
37 °FClear.5 mph87%29.68 "Hg10 mi
11:20 PM37 °FClear.6 mph87%29.68 "Hg10 mi
10:50 PM37 °FClear.5 mph87%29.68 "Hg10 mi
10:20 PM37 °FOvercast.3 mph87%29.68 "HgN/A
9:50 PM39 °FOvercast.5 mph81%29.68 "HgN/A
9:20 PM39 °FOvercast.5 mph81%29.71 "HgN/A
8:50 PM39 °FOvercast.3 mph81%29.71 "HgN/A
8:20 PM39 °FOvercast.2 mph81%29.71 "HgN/A
7:50 PM41 °FPartly cloudy.2 mph76%29.71 "HgN/A
7:20 PM41 °FPassing clouds.6 mph76%29.71 "HgN/A
6:50 PM41 °FPassing clouds.5 mph70%29.68 "HgN/A
6:20 PM43 °FPartly sunny.7 mph66%29.68 "HgN/A
5:50 PM43 °FBroken clouds.5 mph66%29.68 "HgN/A
5:20 PM43 °FBroken clouds.8 mph66%29.68 "HgN/A
4:50 PM43 °FBroken clouds.8 mph66%29.68 "HgN/A
4:20 PM43 °FBroken clouds.9 mph66%29.68 "HgN/A
3:50 PM43 °FPartly sunny.10 mph71%29.68 "HgN/A
3:20 PM45 °FPartly sunny.10 mph61%29.68 "HgN/A
2:50 PM45 °FBroken clouds.9 mph66%29.65 "HgN/A
2:20 PM45 °FBroken clouds.12 mph66%29.65 "HgN/A
1:50 PM43 °FBroken clouds.13 mph76%29.65 "HgN/A
1:20 PM43 °FBroken clouds.12 mph76%29.65 "HgN/A
12:50 PM43 °FPartly sunny.12 mph81%29.65 "HgN/A
12:20 PM43 °FPartly sunny.8 mph76%29.65 "HgN/A
11:50 AM43 °FPartly sunny.10 mph71%29.65 "HgN/A
11:20 AM43 °FPartly sunny.10 mph76%29.65 "HgN/A
10:50 AM41 °FBroken clouds.10 mph81%29.65 "HgN/A
10:20 AM41 °FBroken clouds.10 mph81%29.65 "HgN/A
9:50 AM41 °FBroken clouds.9 mph81%29.65 "HgN/A
9:20 AM39 °FOvercast.7 mph87%29.65 "HgN/A
8:50 AM37 °FOvercast.7 mph93%29.65 "HgN/A
8:20 AM37 °FOvercast.9 mph87%29.65 "HgN/A
7:50 AM37 °FOvercast.12 mph87%29.65 "HgN/A
7:20 AM37 °FOvercast.8 mph87%29.62 "HgN/A
6:50 AM37 °FLow clouds.9 mph93%29.62 "HgN/A
6:20 AM39 °FLow clouds.7 mph87%29.62 "HgN/A
5:50 AM39 °FLow clouds.10 mph93%29.62 "Hg3 mi
5:20 AM41 °FFog.8 mph93%29.62 "Hg1 mi
4:50 AM41 °FSprinkles. Fog.9 mph93%29.62 "Hg1 mi
4:20 AM41 °FDrizzle. Fog.8 mph93%29.62 "Hg3 mi
3:50 AM41 °FDrizzle. Fog.8 mph93%29.62 "Hg2 mi
3:20 AM41 °FLight rain. Fog.9 mph93%29.62 "Hg2 mi
Weather by CustomWeather, © 2015

See weather overviewHow to use our weather pages